User: anonymous   Login
Location: El Carrer d�Abaix
(41.5797°N, 2.1791°E)
Time: 11:48:49
(UTC+00:00)
Language:

Cosmos 2228 - Orbit

View from above orbital plane
View from above orbital plane
View from above satellite
View from above satellite

Ground track
Ground track

The orbit data is extracted from the following two-line orbital elements,

1 22286U 92094A   20227.13479171  .00000137  00000-0  12156-4 0  9990
2 22286  82.5216   5.4507 0019696 247.9819 111.9306 14.88156688494090
Epoch (UTC): 14 August 2020 03:14:06
Eccentricity: 0.0019696
inclination: 82.5216°
perigee height: 590 km
apogee height: 617 km
right ascension of ascending node: 5.4507°
argument of perigee: 247.9819°
revolutions per day: 14.88156688
mean anomaly at epoch: 111.9306°
orbit number at epoch: 49409

The dashed part of the orbit path shows where the satellite is in the earth's shadow,  

DLR